Simultaneous Nadir Overpasses (SNOs) Predictions

Prediction of SNOs between GOES-14 and AQUA Satellite Orbit:

Table of predicted SNOs for the next 14.0 days since TLE Epoch: 12/14/2018
Index Date Time (GOES-14) GOES-14 Lat,Lon AQUA Lat,Lon Distance(km) Time Diff (sec)
1 12/16/2018 08:20:48 -0.00,-104.23 -0.56,-101.73 285.27 80
2 12/16/2018 20:42:11 0.02,-104.02 -0.60,-106.91 328.56 80
3 12/18/2018 20:32:40 0.01,-104.02 0.01,-103.95 8.24 80
4 12/20/2018 20:20:30 0.01,-104.02 0.68,-101.00 344.34 80
5 12/21/2018 08:41:47 -0.02,-104.25 0.37,-106.17 218.05 80
6 12/23/2018 08:26:56 -0.01,-104.24 -0.24,-103.21 117.56 80
7 12/23/2018 20:48:18 0.02,-104.01 -0.91,-108.39 498.60 80
8 12/25/2018 08:14:45 -0.01,-104.24 -0.86,-100.26 452.97 80
9 12/25/2018 20:36:08 0.02,-104.00 -0.30,-105.43 162.91 80
10 12/27/2018 20:26:37 0.02,-104.00 0.33,-102.48 172.91 80
11 12/28/2018 08:47:53 -0.03,-104.24 0.72,-107.65 387.50 80




NCC Satellite Simultaneous Nadir Overpasses (SNOs) Prediction Service
